Weather History for K36U - May, 2012

Change the Weather History Date:

Thursday, May 3, 2012

  Actual Average (KSLC) Record (KSLC)
Temperature  
Mean Temperature 55 °F 56 °F  
Max Temperature 71 °F 67 °F 91 °F (1947)
Min Temperature 39 °F 44 °F 28 °F (1964)
Degree Days  
Heating Degree Days 10 10  
Month to date heating degree days 30  
Since 1 July heating degree days 5386  
Cooling Degree Days 0 1  
Month to date cooling degree days 2  
Year to date cooling degree days 6  
Growing Degree Days 5 (Base 50)    
Moisture  
Dew Point 33 °F    
Average Humidity 46    
Maximum Humidity 81    
Minimum Humidity 23    
Precipitation  
Precipitation 0.00 in 0.07 in 2.64 in (1901)
Month to date precipitation 0.22  
Year to date precipitation 6.50  
Snow  
Snow 0.00 in 0.00 in 2.20 in (1950)
Month to date snowfall 0.1  
Since 1 July snowfall 56.0  
Snow Depth -    
Sea Level Pressure  
Sea Level Pressure 29.88 in    
Wind  
Wind Speed 6 mph (SW)    
Max Wind Speed 24 mph    
Max Gust Speed 36 mph    
Visibility 10 miles    
Events      
T = Trace of Precipitation, MM = Missing Value Source: NWS Daily Summary

Daily Weather History Graph

Daily Weather History Graph

Search for Another Location

Airport or City:

Trip Planner

Search our weather history database for the weather conditions in past years. The results will help you decide how hot, cold, wet, or windy it might be!

Date:

Astronomy

May. 03, 2012 Rise Set
Actual Time 6:21 AM MDT 8:24 PM MDT
Civil Twilight 5:51 AM MDT 8:53 PM MDT
Nautical Twilight 5:15 AM MDT 9:30 PM MDT
Astronomical Twilight 4:35 AM MDT 10:10 PM MDT
Moon 5:52 PM MDT (5/3) 4:28 AM MDT (5/3)
Length of Visible Light 15h 02m
Length of Day
14h 02m
Waxing Gibbous, 91% of the Moon is Illuminated
May 3
Waxing Gibbous
May 5
Full
May 12
Last Quarter
May 20
New
May 28
First Quarter

Hourly Weather History & Observations

Time (MDT) Temp. Windchill Dew Point Humidity Pressure Visibility Wind Dir Wind Speed Gust Speed Precip Events Conditions
12:15 AM 44.6 °F - 33.8 °F 66% 29.88 in 10.0 mi Calm Calm - N/A   Clear
12:35 AM 46.4 °F 45.2 °F 32.0 °F 57% 29.88 in 10.0 mi West 3.5 mph - N/A   Clear
12:55 AM 44.6 °F - 33.8 °F 66% 29.88 in 10.0 mi Calm Calm - N/A   Clear
1:15 AM 42.8 °F - 33.8 °F 70% 29.88 in 10.0 mi Calm Calm - N/A   Clear
1:35 AM 44.6 °F 43.1 °F 32.0 °F 61% 29.88 in 10.0 mi North 3.5 mph - N/A   Clear
1:55 AM 42.8 °F 41.1 °F 33.8 °F 70% 29.88 in 10.0 mi East 3.5 mph - N/A   Clear
2:15 AM 41.0 °F - 33.8 °F 76% 29.88 in 10.0 mi Calm Calm - N/A   Clear
2:35 AM 41.0 °F - 33.8 °F 76% 29.88 in 10.0 mi Calm Calm - N/A   Scattered Clouds
2:55 AM 39.2 °F - 33.8 °F 81% 29.88 in 10.0 mi Calm Calm - N/A   Scattered Clouds
3:15 AM 41.0 °F - 35.6 °F 81% 29.88 in 10.0 mi Calm Calm - N/A   Clear
3:35 AM 41.0 °F - 35.6 °F 81% 29.88 in 10.0 mi Calm Calm - N/A   Clear
3:55 AM 41.0 °F 38.0 °F 35.6 °F 81% 29.88 in 10.0 mi ESE 4.6 mph - N/A   Clear
4:15 AM 42.8 °F - 35.6 °F 76% 29.88 in 10.0 mi Calm Calm - N/A   Clear
4:35 AM 41.0 °F - 35.6 °F 81% 29.88 in 10.0 mi Calm Calm - N/A   Clear
4:55 AM 41.0 °F - 35.6 °F 81% 29.88 in 10.0 mi Calm Calm - N/A   Clear
5:15 AM 41.0 °F - 35.6 °F 81% 29.88 in 10.0 mi Calm Calm - N/A   Clear
5:35 AM 42.8 °F 41.1 °F 35.6 °F 76% 29.89 in 10.0 mi SE 3.5 mph - N/A   Clear
5:55 AM 42.8 °F - 33.8 °F 70% 29.89 in 10.0 mi Calm Calm - N/A   Clear
6:15 AM 42.8 °F - 35.6 °F 76% 29.89 in 10.0 mi Calm Calm - N/A   Clear
6:35 AM 41.0 °F - 33.8 °F 76% 29.89 in 10.0 mi Calm Calm - N/A   Clear
6:55 AM 39.2 °F - 33.8 °F 81% 29.89 in 10.0 mi Calm Calm - N/A   Clear
7:15 AM 41.0 °F - 35.6 °F 81% 29.89 in 10.0 mi Calm Calm - N/A   Clear
7:35 AM 41.0 °F - 35.6 °F 81% 29.89 in 10.0 mi Calm Calm - N/A   Clear
7:55 AM 46.4 °F - 35.6 °F 66% 29.89 in 10.0 mi Calm Calm - N/A   Clear
8:15 AM 51.8 °F - 35.6 °F 54% 29.90 in 10.0 mi Calm Calm - N/A   Clear
8:35 AM 53.6 °F - 35.6 °F 51% 29.90 in 10.0 mi Calm Calm - N/A   Clear
8:55 AM 55.4 °F - 37.4 °F 51% 29.90 in 10.0 mi Calm Calm - N/A   Clear
9:15 AM 60.8 °F - 32.0 °F 34% 29.90 in 10.0 mi West 3.5 mph - N/A   Clear
9:35 AM 62.6 °F - 32.0 °F 32% 29.90 in 10.0 mi SW 5.8 mph - N/A   Clear
9:55 AM 64.4 °F - 32.0 °F 30% 29.90 in 10.0 mi Calm Calm - N/A   Clear
10:15 AM 64.4 °F - 32.0 °F 30% 29.90 in 10.0 mi SW 17.3 mph 20.7 mph N/A   Clear
10:35 AM 64.4 °F - 32.0 °F 30% 29.90 in 10.0 mi SW 18.4 mph 23.0 mph N/A   Clear
10:55 AM 66.2 °F - 32.0 °F 28% 29.90 in 10.0 mi SW 18.4 mph 25.3 mph N/A   Clear
11:15 AM 66.2 °F - 32.0 °F 28% 29.90 in 10.0 mi SW 19.6 mph 26.5 mph N/A   Clear
11:35 AM 66.2 °F - 32.0 °F 28% 29.90 in 10.0 mi WSW 19.6 mph 26.5 mph N/A   Clear
11:55 AM 68.0 °F - 33.8 °F 28% 29.90 in 10.0 mi SW 21.9 mph 26.5 mph N/A   Scattered Clouds
12:15 PM 68.0 °F - 33.8 °F 28% 29.90 in 10.0 mi WSW 23.0 mph 28.8 mph N/A   Scattered Clouds
12:35 PM 68.0 °F - 32.0 °F 26% 29.90 in 10.0 mi WSW 23.0 mph 31.1 mph N/A   Scattered Clouds
12:55 PM 69.8 °F - 32.0 °F 25% 29.89 in 10.0 mi WSW 19.6 mph 24.2 mph N/A   Scattered Clouds
1:15 PM 69.8 °F - 32.0 °F 25% 29.88 in 10.0 mi WSW 20.7 mph 27.6 mph N/A   Scattered Clouds
1:35 PM 71.6 °F - 32.0 °F 23% 29.88 in 10.0 mi WSW 23.0 mph 33.4 mph N/A   Scattered Clouds
1:55 PM 71.6 °F - 32.0 °F 23% 29.87 in 10.0 mi SW 16.1 mph 32.2 mph N/A   Clear
2:15 PM 71.6 °F - 32.0 °F 23% 29.87 in 10.0 mi SW 20.7 mph 31.1 mph N/A   Clear
2:35 PM 71.6 °F - 32.0 °F 23% 29.87 in 10.0 mi SW 23.0 mph 31.1 mph N/A   Clear
2:55 PM 69.8 °F - 32.0 °F 25% 29.86 in 10.0 mi SW 21.9 mph 32.2 mph N/A   Clear
3:15 PM 69.8 °F - 32.0 °F 25% 29.86 in 10.0 mi SW 19.6 mph 31.1 mph N/A   Clear
3:35 PM 69.8 °F - 32.0 °F 25% 29.85 in 10.0 mi WSW 23.0 mph 31.1 mph N/A   Clear
3:55 PM 68.0 °F - 32.0 °F 26% 29.85 in 10.0 mi WSW 15.0 mph 26.5 mph N/A   Scattered Clouds
4:15 PM 69.8 °F - 30.2 °F 23% 29.84 in 10.0 mi SW 16.1 mph 26.5 mph N/A   Scattered Clouds
4:35 PM 68.0 °F - 30.2 °F 24% 29.84 in 10.0 mi SW 20.7 mph 31.1 mph N/A   Scattered Clouds
4:55 PM 68.0 °F - 30.2 °F 24% 29.84 in 10.0 mi SW 21.9 mph 29.9 mph N/A   Mostly Cloudy
5:15 PM 66.2 °F - 30.2 °F 26% 29.84 in 10.0 mi SW 20.7 mph 35.7 mph N/A   Mostly Cloudy
5:35 PM 66.2 °F - 30.2 °F 26% 29.85 in 10.0 mi SW 17.3 mph 33.4 mph N/A   Mostly Cloudy
5:55 PM 64.4 °F - 30.2 °F 28% 29.84 in 10.0 mi SW 21.9 mph 29.9 mph N/A   Mostly Cloudy
6:15 PM 64.4 °F - 30.2 °F 28% 29.85 in 10.0 mi SW 20.7 mph 27.6 mph N/A   Scattered Clouds
6:35 PM 64.4 °F - 30.2 °F 28% 29.85 in 10.0 mi SW 17.3 mph 23.0 mph N/A   Mostly Cloudy
6:55 PM 64.4 °F - 30.2 °F 28% 29.86 in 10.0 mi SW 24.2 mph 32.2 mph N/A   Scattered Clouds
7:15 PM 64.4 °F - 30.2 °F 28% 29.86 in 10.0 mi SW 19.6 mph 31.1 mph N/A   Mostly Cloudy
7:35 PM 64.4 °F - 30.2 °F 28% 29.86 in 10.0 mi SW 16.1 mph - N/A   Overcast
7:55 PM 62.6 °F - 30.2 °F 30% 29.86 in 10.0 mi SW 10.4 mph - N/A   Scattered Clouds
8:15 PM 62.6 °F - 28.4 °F 27% 29.86 in 10.0 mi SSW 9.2 mph - N/A   Mostly Cloudy
8:35 PM 62.6 °F - 30.2 °F 30% 29.86 in 10.0 mi SW 6.9 mph - N/A   Mostly Cloudy
8:55 PM 60.8 °F - 30.2 °F 31% 29.87 in 10.0 mi SW 4.6 mph - N/A   Mostly Cloudy
9:15 PM 59.0 °F - 32.0 °F 36% 29.87 in 10.0 mi Calm Calm - N/A   Mostly Cloudy
9:35 PM 55.4 °F - 32.0 °F 41% 29.88 in 10.0 mi Calm Calm - N/A   Mostly Cloudy
9:55 PM 51.8 °F - 33.8 °F 50% 29.88 in 10.0 mi East 3.5 mph - N/A   Scattered Clouds
10:15 PM 53.6 °F - 35.6 °F 51% 29.88 in 10.0 mi East 3.5 mph - N/A   Mostly Cloudy
10:35 PM 53.6 °F - 33.8 °F 47% 29.88 in 10.0 mi Calm Calm - N/A   Overcast
10:55 PM 55.4 °F - 33.8 °F 44% 29.88 in 10.0 mi NNE 4.6 mph - N/A   Overcast
11:15 PM 53.6 °F - 33.8 °F 47% 29.89 in 10.0 mi Calm Calm - N/A   Overcast
11:35 PM 53.6 °F - 35.6 °F 51% 29.89 in 10.0 mi ESE 4.6 mph - N/A   Scattered Clouds
11:55 PM 53.6 °F - 33.8 °F 47% 29.89 in 10.0 mi Calm Calm - N/A   Scattered Clouds